Date String (YYYY-MM-DD hh:mm:ss) UTC,Instrument flags,Ambient pressure (hPa),Sample flow (lpm),Bypass flow (lpm),Sample temperature (°C),Ambient temperature (°C),ASC tube jacket temperature (°C),LED temperature (°C),Box temperature (°C),Sample RH (%),Span deviation,Mass concentration (μg/m³),Mass concentration (μg/m³),Mass concentration (μg/m³)
DateTimeUTC,F1_M11,P_M11,Q1_M11,Q2_M11,T1_M11,T2_M11,T3_M11,T4_M11,T5_M11,U1_M11,ZSPAN_M11,X2_M11,X0_M11,X1_M11
2022-03-11 17:00:00,,0828.1,5.00,0.00,23.0,22.1,00.0,32.0,24.8,07.1,0000.4,0011.48,0018.67,0010.95
2022-03-11 17:01:00,,0828.1,5.00,0.00,23.0,22.2,00.0,32.0,24.8,07.2,0000.2,0011.55,0018.71,0011.01
2022-03-11 17:02:00,,0828.1,5.00,0.00,23.0,22.2,00.0,32.0,24.8,07.1,0000.8,0011.60,0018.78,0011.08
2022-03-11 17:03:00,,0828.2,5.00,0.00,23.0,22.2,00.0,32.0,24.8,07.0,0001.1,0011.65,0018.50,0011.12
2022-03-11 17:04:00,,0828.1,5.00,0.00,23.0,22.2,00.0,32.0,24.8,07.1,0001.0,0011.71,0018.52,0011.16
2022-03-11 17:05:00,,0828.1,5.00,0.00,23.0,22.2,00.0,32.0,24.8,07.4,0000.9,0011.70,0018.53,0011.17
2022-03-11 17:06:00,,0828.1,4.99,0.00,23.0,22.2,00.0,32.0,24.8,07.1,0000.6,0011.70,0018.55,0011.18
2022-03-11 17:07:00,,0828.2,4.99,0.00,23.0,22.2,00.0,32.0,24.8,07.1,0000.7,0011.71,0018.89,0011.18
2022-03-11 17:08:00,,0828.2,5.00,0.00,23.0,22.2,00.0,32.0,24.8,07.3,0000.8,0011.73,0019.80,0011.20
2022-03-11 17:09:00,,0828.1,5.00,0.00,23.0,22.2,00.0,32.0,24.8,07.3,0000.7,0011.79,0019.37,0011.25
2022-03-11 17:10:00,,0828.1,5.00,0.00,23.0,22.2,00.0,32.0,24.8,07.2,0000.9,0011.85,0018.51,0011.30
2022-03-11 17:11:00,,0828.1,5.00,0.00,23.0,22.2,00.0,32.0,24.8,07.0,0000.9,0011.87,0018.43,0011.35
2022-03-11 17:12:00,,0828.1,5.00,0.00,23.0,22.2,00.0,32.0,24.8,07.1,0000.9,0011.87,0018.67,0011.37
2022-03-11 17:13:00,,0828.1,5.00,0.00,23.0,22.3,00.0,32.0,24.8,07.1,0000.2,0011.91,0018.73,0011.41
2022-03-11 17:14:00,,0828.1,5.00,0.00,23.0,22.3,00.0,32.0,24.9,07.2,0000.1,0011.97,0018.06,0011.46
2022-03-11 17:15:00,,0828.1,5.00,0.00,23.0,22.3,00.0,32.0,24.9,07.0,0000.2,0011.97,0018.28,0011.48
2022-03-11 17:16:00,,0828.1,5.01,0.00,23.1,22.3,00.0,32.0,24.9,07.1,0000.3,0011.98,0018.28,0011.51
2022-03-11 17:17:00,,0828.1,5.00,0.00,23.1,22.3,00.0,32.0,24.8,07.0,0000.2,0011.93,0018.20,0011.50
2022-03-11 17:18:00,,0828.3,5.00,0.00,23.1,22.3,00.0,32.0,24.9,06.9,0000.3,0011.89,0017.87,0011.47
2022-03-11 17:19:00,,0828.1,5.00,0.00,23.1,22.3,00.0,32.0,24.9,07.2,0000.1,0011.87,0017.18,0011.45
2022-03-11 17:20:00,,0828.1,5.00,0.00,23.0,22.2,00.0,32.0,24.8,06.9,-000.1,0011.84,0016.58,0011.41
2022-03-11 17:21:00,,0828.2,5.00,0.00,23.0,22.2,00.0,32.0,24.8,07.1,-000.4,0011.82,0016.61,0011.39
2022-03-11 17:22:00,,0828.0,5.00,0.00,23.0,22.1,00.0,32.0,24.7,07.4,-000.1,0011.86,0016.74,0011.38
2022-03-11 17:23:00,,0828.0,4.99,0.00,22.9,22.0,00.0,31.9,24.6,07.4,0000.1,0011.92,0016.55,0011.41
2022-03-11 17:24:00,,0828.0,5.01,0.00,22.9,22.0,00.0,31.9,24.6,07.3,0000.3,0011.96,0016.63,0011.43
2022-03-11 17:25:00,,0828.0,5.00,0.00,22.9,22.0,00.0,31.9,24.6,07.2,0000.3,0011.93,0016.52,0011.43
2022-03-11 17:26:00,,0828.1,5.00,0.00,22.9,22.0,00.0,31.9,24.6,07.3,-000.1,0011.93,0016.19,0011.41
2022-03-11 17:27:00,,0828.0,5.00,0.00,22.8,22.0,00.0,31.9,24.6,07.2,-000.1,0011.96,0016.14,0011.42
2022-03-11 17:28:00,,0827.9,4.99,0.00,22.8,22.0,00.0,31.9,24.6,07.1,-000.3,0012.01,0016.27,0011.45
2022-03-11 17:29:00,,0827.9,5.00,0.00,22.8,22.0,00.0,31.9,24.6,07.0,-000.2,0012.07,0016.48,0011.49
2022-03-11 17:30:00,,0827.9,5.00,0.00,22.8,22.0,00.0,31.9,24.5,07.0,-000.1,0012.13,0016.70,0011.53
2022-03-11 17:31:00,,0827.9,4.99,0.00,22.8,22.0,00.0,31.8,24.5,06.8,0000.0,0012.16,0016.72,0011.57
2022-03-11 17:32:00,,0827.9,5.01,0.00,22.8,22.0,00.0,31.8,24.5,06.8,0000.1,0012.13,0016.70,0011.54
2022-03-11 17:33:00,,0828.0,5.00,0.00,22.7,22.0,00.0,31.8,24.4,07.2,-000.1,0012.14,0016.72,0011.56
2022-03-11 17:34:00,,0828.0,5.00,0.00,22.7,21.9,00.0,31.8,24.3,07.5,-000.4,0012.13,0016.73,0011.56
2022-03-11 17:35:00,,0828.2,5.01,0.00,22.7,21.9,00.0,31.8,24.3,07.8,-000.5,0012.13,0016.74,0011.57
2022-03-11 17:36:00,,0828.0,5.00,0.00,22.6,21.9,00.0,31.8,24.3,07.3,-000.4,0012.20,0016.99,0011.62
2022-03-11 17:37:00,,0828.0,5.00,0.00,22.6,21.8,00.0,31.7,24.2,07.3,-000.1,0012.25,0017.16,0011.68
2022-03-11 17:38:00,,0828.0,5.00,0.00,22.5,21.7,00.0,31.7,24.1,07.2,0000.1,0012.28,0017.54,0011.70
2022-03-11 17:39:00,,0828.0,4.99,0.00,22.5,21.6,00.0,31.7,24.1,07.1,-000.0,0012.28,0017.89,0011.67
2022-03-11 17:40:00,,0827.9,5.00,0.00,22.5,21.6,00.0,31.7,24.1,07.4,0000.1,0012.25,0017.83,0011.63
2022-03-11 17:41:00,,0827.9,5.00,0.00,22.4,21.5,00.0,31.6,24.1,07.0,0000.2,0012.22,0017.60,0011.59
2022-03-11 17:42:00,,0828.0,4.99,0.00,22.4,21.5,00.0,31.6,24.0,06.6,0000.1,0012.16,0017.62,0011.53
2022-03-11 17:43:00,,0828.3,5.00,0.00,22.4,21.5,00.0,31.6,24.0,06.7,-000.1,0012.11,0017.62,0011.48
2022-03-11 17:44:00,,0828.2,5.00,0.00,22.4,21.5,00.0,31.6,24.0,06.8,-000.2,0012.03,0017.46,0011.39
2022-03-11 17:45:00,,0828.2,5.00,0.00,22.3,21.5,00.0,31.5,24.0,07.0,-000.2,0011.95,0017.33,0011.33
2022-03-11 17:46:00,,0828.0,5.01,0.00,22.3,21.4,00.0,31.5,24.0,07.3,0000.3,0011.98,0017.61,0011.31
2022-03-11 17:47:00,,0828.0,4.99,0.00,22.3,21.4,00.0,31.5,24.0,06.9,0000.5,0011.92,0017.61,0011.25
2022-03-11 17:48:00,,0828.0,5.01,0.00,22.3,22.1,00.0,31.5,24.1,06.8,0000.5,0011.88,0017.51,0011.22
2022-03-11 17:49:00,,0828.0,5.00,0.00,22.5,23.1,00.0,31.5,24.4,06.9,0000.4,0011.90,0017.55,0011.20
2022-03-11 17:50:00,,0828.0,5.00,0.00,22.6,23.4,00.0,31.5,24.6,07.1,0000.6,0011.93,0016.92,0011.25
2022-03-11 17:51:00,,0828.0,5.00,0.00,22.7,23.2,00.0,31.6,24.6,06.9,0000.7,0012.02,0017.00,0011.34
2022-03-11 17:52:00,,0827.9,4.99,0.00,22.7,23.0,00.0,31.6,24.6,07.1,0000.3,0012.08,0017.41,0011.40
2022-03-11 17:53:00,,0827.9,4.99,0.00,22.7,22.7,00.0,31.6,24.5,07.1,0000.3,0012.13,0017.59,0011.46
2022-03-11 17:54:00,,0827.9,5.01,0.00,22.6,22.4,00.0,31.6,24.4,07.0,0000.7,0012.23,0017.71,0011.53
2022-03-11 17:55:00,,0827.9,5.01,0.00,22.6,22.2,00.0,31.6,24.4,07.0,0001.0,0012.32,0017.84,0011.62
2022-03-11 17:56:00,,0827.9,5.01,0.00,22.6,22.1,00.0,31.6,24.4,07.3,0001.3,0012.42,0018.04,0011.70
2022-03-11 17:57:00,,0827.9,5.00,0.00,22.6,22.1,00.0,31.6,24.4,07.3,0001.2,0012.50,0017.99,0011.78
2022-03-11 17:58:00,,0827.9,5.01,0.00,22.6,22.1,00.0,31.6,24.4,07.2,0001.0,0012.65,0018.73,0011.90
2022-03-11 17:59:00,,0827.9,5.01,0.00,22.6,22.1,00.0,31.6,24.4,07.2,0001.4,0012.79,0019.19,0012.02
